This demonstration page uses our WeatherBlox Daily Observations layout. Learn more.

Left ArrowRight Arrow

31.84235, -102.49876

Hourly Observations for August 13, 2015

Temp ( °F °C ) Dew Point ( °F °C ) Humidity (%) Winds ( mph kmh ) Pressure ( in mb ) Visibility ( mi km ) Precip ( " mm )
12:53 am 00:53 Clear 80 26.7 62 16.7 54 54 SE 5 7 30.01 1016 10 16 0.00 0.00
1:53 am 01:53 Clear 79 26.1 62 16.7 56 56 SE 3 6 30.00 1016 10 16 0.00 0.00
2:53 am 02:53 Clear 78 25.6 62 16.7 58 58 ESE 3 6 30.00 1016 10 16 0.00 0.00
3:53 am 03:53 Clear 76 24.4 62 16.7 62 62 SE 5 7 29.99 1016 10 16 0.00 0.00
4:53 am 04:53 Clear 76 24.4 63 17.2 64 64 S 3 6 29.99 1016 10 16 0.00 0.00
5:53 am 05:53 undefined 76 24.4 62 16.7 62 62 Calm 30.00 1016 10 16 0.00 0.00
6:53 am 06:53 Clear 75 23.9 62 16.7 64 64 Calm 30.00 1016 10 16 0.00 0.00
7:53 am 07:53 Sunny 76 24.4 62 16.7 62 62 SE 3 6 30.02 1017 10 16 0.00 0.00
8:53 am 08:53 Sunny 81 27.2 58 14.4 45 45 S 5 7 30.03 1017 10 16 0.00 0.00
9:53 am 09:53 Sunny 86 30 58 14.4 39 39 S 7 11 30.04 1017 10 16 0.00 0.00
10:53 am 10:53 Sunny 90 32.2 58 14.4 34 34 undefined N/A 30.03 1017 10 16 0.00 0.00
11:53 am 11:53 Sunny 92 33.3 57 13.9 31 31 undefined N/A 30.03 1017 10 16 0.00 0.00
12:53 pm 12:53 Sunny 94 34.4 55 12.8 27 27 SE 8 13 30.01 1016 10 16 0.00 0.00
1:53 pm 13:53 Sunny 97 36.1 53 11.7 23 23 ENE 7 11 29.98 1015 10 16 0.00 0.00
2:53 pm 14:53 Sunny 99 37.2 52 11.1 21 21 E 7 11 29.96 1014 10 16 0.00 0.00
3:53 pm 15:53 Sunny 100 37.8 52 11.1 20 20 VRB 6 9 29.93 1014 10 16 0.00 0.00
4:53 pm 16:53 Mostly Sunny 100 37.8 51 10.6 19 19 undefined N/A 29.91 1013 10 16 0.00 0.00
5:53 pm 17:53 Mostly Sunny 100 37.8 50 10 18 18 S 5 7 29.90 1012 10 16 0.00 0.00
6:53 pm 18:53 Sunny 100 37.8 50 10 18 18 Calm 29.88 1012 10 16 0.00 0.00
7:53 pm 19:53 Sunny 98 36.7 52 11.1 21 21 ESE 10 17 29.88 1012 10 16 0.00 0.00
8:53 pm 20:53 Clear 94 34.4 56 13.3 28 28 SE 12 19 29.90 1012 10 16 0.00 0.00
9:53 pm 21:53 Clear 91 32.8 56 13.3 31 31 SE 14 22 29.92 1013 10 16 0.00 0.00
10:53 pm 22:53 Clear 89 31.7 57 13.9 34 34 SSE 18 30 29.94 1014 10 16 0.00 0.00
11:53 pm 23:53 Clear 87 30.6 58 14.4 37 37 SSE 10 17 29.94 1014 10 16 0.00 0.00

Powered by AerisWeather